WB7CYS Weather Reports


time (UTC)temp
F
wind
direction
speed
knots
gust
knots
rain 1hr
in
rain 24hr
in
rain mn
in
humidity
%
barometer
mb
20260505171529 67 269 6.1 11.3 0.00 0.00 0.00 58 1009.3
20260505170029 66 281 6.1 9.6 0.00 0.00 0.00 56 1009.2
20260505164544 66 267 5.2 7.8 0.00 0.00 0.00 57 1009.2
20260505163025 66 281 3.5 7.8 0.00 0.00 0.00 59 1009.1
20260505161524 66 203 2.6 5.2 0.00 0.00 0.00 59 1009.0
20260505153016 63 98 3.5 4.3 0.00 0.00 0.00 62 1009.0
20260505151517 63 109 3.5 5.2 0.00 0.00 0.00 63 1008.8
20260505140109 58 74 7.0 9.6 0.00 0.00 0.00 68 1008.0
20260505124544 0 0.0 0.0 0.00 0.00 0.00 1007.2
20260505123039 0 0.0 0.0 0.00 0.00 0.00 1007.1
20260505121537 0 0.0 0.0 0.00 0.00 0.00 1007.0
20260505120030 0 0.0 0.0 0.00 0.00 0.00 1006.8
20260505114533 0 0.0 0.0 0.00 0.00 0.00 1006.7
20260505113022 0 0.0 0.0 0.00 0.00 0.00 1006.6
20260505111517 0 0.0 0.0 0.00 0.00 0.00 1006.5
20260505101604 57 87 7.8 8.7 0.00 0.00 0.00 66 1006.1
20260505100057 58 111 6.1 9.6 0.00 0.00 0.00 65 1006.2
20260505094559 59 82 6.1 7.8 0.00 0.00 0.00 64 1006.0
20260505093054 58 247 0.9 3.5 0.00 0.00 0.00 64 1006.0
20260505091557 59 39 2.6 4.3 0.00 0.00 0.00 63 1005.8
20260505090057 59 94 3.5 5.2 0.00 0.00 0.00 62 1005.7
20260505084550 60 70 0.9 7.8 0.00 0.00 0.00 61 1005.7
20260505083049 60 66 5.2 7.0 0.00 0.00 0.00 61 1005.7
20260505081557 60 81 4.3 7.0 0.00 0.00 0.00 63 1005.7
20260505080048 59 85 1.7 5.2 0.00 0.00 0.00 63 1005.6
20260505074602 59 81 6.1 7.0 0.00 0.00 0.00 63 1005.5
20260505073038 60 80 2.6 5.2 0.00 0.00 0.00 63 1005.5
20260505071532 58 82 5.2 6.1 0.00 0.00 0.00 70 1005.3
20260505070030 56 93 3.5 3.5 0.00 0.00 0.00 72 1005.0
20260505064527 58 285 0.9 3.5 0.00 0.00 0.00 68 1004.8
20260505063034 61 225 3.5 5.2 0.00 0.00 0.00 60 1004.7
20260505061530 61 101 5.2 6.1 0.00 0.00 0.00 60 1004.4
20260505060025 62 104 5.2 11.3 0.00 0.00 0.00 58 1004.1
20260505054527 64 86 10.4 13.0 0.00 0.00 0.00 55 1003.9
20260505053022 64 108 7.8 10.4 0.00 0.00 0.00 55 1003.9
20260505051522 65 93 10.4 13.9 0.00 0.00 0.00 54 1003.8
20260505041518 65 89 6.1 7.8 0.00 0.00 0.00 54 1003.7
20260505040018 66 89 5.2 7.8 0.00 0.00 0.00 53 1003.7
20260505034519 66 92 5.2 7.0 0.00 0.00 0.00 54 1003.5
20260505033029 66 98 5.2 7.0 0.00 0.00 0.00 57 1003.4
20260505031516 67 122 2.6 4.3 0.00 0.00 0.00 56 1003.2
20260505030016 69 107 3.5 4.3 0.00 0.00 0.00 54 1003.3
20260505024533 72 91 4.3 5.2 0.00 0.00 0.00 50 1003.2
20260505023015 75 91 3.5 4.3 0.00 0.00 0.00 42 1003.3
20260505021528 76 89 3.5 4.3 0.00 0.00 0.00 37 1003.3
20260505020011 77 77 4.3 5.2 0.00 0.00 0.00 36 1003.3
20260505014510 77 84 4.3 4.3 0.00 0.00 0.00 34 1003.3
20260505013009 77 74 3.5 5.2 0.00 0.00 0.00 35 1003.6
20260505011508 78 70 2.6 4.3 0.00 0.00 0.00 36 1003.7
20260505010006 80 67 1.7 7.0 0.00 0.00 0.00 32 1003.8
20260505004513 79 7 3.5 9.6 0.00 0.00 0.00 32 1003.9
20260505003002 79 53 1.7 8.7 0.00 0.00 0.00 29 1003.8
20260505001600 79 338 7.8 9.6 0.00 0.00 0.00 29 1003.8
20260505000058 79 318 7.8 13.0 0.00 0.00 0.00 26 1003.8
20260504234557 79 326 8.7 12.2 0.00 0.00 0.00 28 1003.7
20260504233100 79 329 7.8 12.2 0.00 0.00 0.00 27 1003.9
20260504231549 79 314 7.0 9.6 0.00 0.00 0.00 30 1004.0
20260504230047 79 349 7.0 13.9 0.00 0.00 0.00 34 1004.1
20260504224545 79 308 7.0 11.3 0.00 0.00 0.00 35 1004.2
20260504223052 78 269 3.5 8.7 0.00 0.00 0.00 35 1004.4
20260504221546 78 285 6.1 11.3 0.00 0.00 0.00 34 1004.5
20260504220051 78 283 2.6 7.0 0.00 0.00 0.00 35 1004.6
20260504214537 79 319 1.7 4.3 0.00 0.00 0.00 33 1004.9
20260504213032 78 276 4.3 9.6 0.00 0.00 0.00 36 1005.1
20260504211529 77 249 0.9 11.3 0.00 0.00 0.00 34 1005.2
20260504210028 77 295 7.8 12.2 0.00 0.00 0.00 36 1005.2
20260504204531 76 253 5.2 7.0 0.00 0.00 0.00 36 1005.5
20260504203025 76 292 5.2 8.7 0.00 0.00 0.00 38 1005.7
20260504201519 75 295 2.6 9.6 0.00 0.00 0.00 36 1005.8
20260504200019 75 270 2.6 7.0 0.00 0.00 0.00 38 1005.9
20260504194517 75 162 2.6 7.0 0.00 0.00 0.00 37 1005.9
20260504193017 75 301 4.3 8.7 0.00 0.00 0.00 41 1006.1
20260504191514 74 245 2.6 7.0 0.00 0.00 0.00 39 1006.3
20260504190010 73 278 1.7 9.6 0.00 0.00 0.00 41 1006.4
20260504184513 73 207 1.7 8.7 0.00 0.00 0.00 40 1006.4
20260504183008 72 201 2.6 7.8 0.00 0.00 0.00 41 1006.5
20260504181505 71 209 5.2 7.0 0.00 0.00 0.00 43 1006.6
20260504180004 71 257 6.1 7.8 0.00 0.00 0.00 43 1006.7
20260504174502 70 285 4.3 7.0 0.00 0.00 0.00 45 1006.7
20260504173101 70 246 5.2 7.8 0.00 0.00 0.00 46 1006.7